{"data":{"norad_id":55386,"epoch":"2026-09-20T13:37:35.359968Z","epoch_age_seconds":90868,"freshness":"FRESH","line1":"1 55386U 23013BH  26263.56777037 -.00000388  00000+0 -45366-5 0  9996","line2":"2 55386  43.0043 297.8492 0003131 246.0526 113.9997 15.27580812201301","mean_motion":15.27580812,"eccentricity":0.0003131,"inclination_deg":43.0043,"raan_deg":297.8492,"arg_perigee_deg":246.0526,"mean_anomaly_deg":113.9997,"bstar":-4.5366e-6,"rev_number":20130,"period_min":94.266698605272,"perigee_km":480.89842801522,"apogee_km":485.19490122601,"semimajor_km":6861.1836646206,"source":"CELESTRAK","updated_at":"2026-09-21T09:00:33.212993Z"}}